Aérodrome :
LOGIN :

S'inscrire | Disclaimer

   EN    FR    IT 

 










Légende :    VFR   VFR Marginal   IFR   IFR Intensif   IFR Très Intensif
Visi : 
Plafond : 
>= 8 km
>= 3000ft
5 à 8 km
1000 à 3000 ft
1500m à 5 km
500 à 1000 ft
800 à 1500m
200 à 500 ft
< 800m
< 200 ft
Symboles :   Orages  Brouillard  Fortes neiges  Fortes précipitations  Vent > 20 kt
SIGMETs :   Divers  Orages  Givrage  Turbulence  Onde Orograph.  Cendres Volcan.







- Altitude de l'aérodrome : 39 ft
- Code IATA : ANR


EBAW - Anvers / Antwerpen Deurne

DERNIER METAR :
  • 241220Z 33009KT 310V010 CAVOK 10/00 Q1029 NOSIG

METARs EXPIRÉS :
  • 241150Z 33008KT 300V010 CAVOK 10/01 Q1029 NOSIG
  • 241120Z 33009KT 290V020 9999 FEW040 10/01 Q1029 NOSIG
  • 241050Z 34007KT 300V020 9999 FEW040 10/01 Q1029 NOSIG
  • 241020Z VRB02KT 9999 FEW040 10/M00 Q1029 NOSIG
  • 240950Z 04004KT 350V090 CAVOK 10/02 Q1029 NOSIG

TAF TAF EBAW
Valide du 24 à 09h jusqu'au 24 à 18h UTC


240810Z 2409/2418 33005KT CAVOK
Pas de NOTAMs connus pour ce terrain.



MET'MAP, la Météo Aéronautique d'un coup d'oeil ! - Copyright ORBIFLY Décembre 2007 - Disclaimer

ORBIFLY MET'MAP TEAM :

Programmation & Développement : Alexandra Zaïnal
Conception & Développement : Baudouin d'Aumeries
Co-Programmation & Développement : Marc-Olivier Méhu
Soutien technique & logistique : Manuel Goepfert

Contact : metmap@orbifly.com




SOURCES & CREDITS :

   NOAA